[[{"header":{"parameterUnit":"m.s-1","parameterCategory":1,"la1":30.2991,"la2":30.254,"lo1":-89.0895,"lo2":-89.0444,"dy":0.0017,"dx":0.0017,"nx":28,"ny":28,"refTime":"2024-12-08T03:00:00:Z","depth":0,"parameterNumber":2,"parameterNumberName":"U-component_of_WINDS"},"data":[0,0,0,0,0,0,0,0,0,0,0,0,0,0,0,0,0,0,0,0,0,0,0,0,0,0,0,0,0,0,0,0,0,0,0,0,0,0,0,0,0,0,0,0,0,0,0,0,0,0,0,0,0,0,0,0,0,0,1.3784,1.3785,0,1.384,1.384,1.3841,1.3822,1.382,1.3819,1.3818,1.3876,1.3878,1.3881,0,0,0,0,0,0,0,0,0,0,0,0,0,1.3663,1.3665,1.3784,1.3785,1.3786,1.384,1.3841,1.3841,1.3822,1.382,1.3819,1.3817,1.3875,1.3878,1.3881,0,0,0,0,0,0,0,0,0,0,0,0,0,1.3717,1.3666,1.3784,1.3783,1.3783,1.384,1.3841,1.3841,1.3822,1.382,1.3818,1.3817,1.3874,1.3878,1.3882,1.3943,0,0,1.3894,1.3896,0,0,0,0,0,0,0,0,1.3714,1.3721,1.3782,1.3783,1.3783,1.3822,1.3819,1.3876,1.3823,1.3807,1.3818,1.3816,1.3859,1.3864,1.3879,1.3946,1.3949,1.3894,1.3897,1.3898,1.39,0,0,0,0,0,0,0,1.371,1.3719,1.3806,1.3783,1.3784,1.3779,1.3785,1.3829,1.3843,1.3808,1.3807,1.3814,1.3859,1.3875,1.388,1.3949,1.3894,1.3898,1.39,1.3902,1.4072,1.4074,0,0,0,0,0,0,1.3706,1.3716,1.3805,1.3808,1.3743,1.3783,1.3789,1.3811,1.3842,1.3845,1.3816,1.3813,1.3869,1.3875,1.3882,1.3958,1.3898,1.3902,1.3904,1.407,1.4072,1.4075,0,0,0,0,0,0,1.3703,1.3714,1.3802,1.3761,1.3772,1.3787,1.3812,1.3813,1.3829,1.3848,1.385,1.3829,1.3868,1.3876,1.3929,1.396,1.3904,1.3908,1.4067,1.407,1.4073,1.4109,0,0,0,0,0,0,1.37,1.3713,1.3736,1.3762,1.3775,1.3848,1.3814,1.3816,1.3836,1.3833,1.3861,1.3864,1.3867,1.3923,1.3933,1.3964,1.3911,1.4065,1.4069,1.4072,1.4105,1.4113,1.412,0,0,0,0,0,1.3695,1.3744,1.3738,1.3749,1.3804,1.385,1.3857,1.3859,1.3839,1.3863,1.3875,1.3863,1.3954,1.3928,1.3939,1.3972,1.4063,1.4068,1.4072,1.4102,1.4112,1.412,0,0,0,0,0,0,1.3722,1.3747,1.3741,1.3799,1.3822,1.3846,1.3876,1.3869,1.3899,1.3895,1.3896,1.3903,1.3957,1.3969,1.394,1.4035,1.4005,1.4013,1.4025,1.4034,1.4041,1.4038,1.3914,0,0,0,0,0,1.3734,1.3769,1.3789,1.3839,1.3851,1.3862,1.3881,1.3881,1.3906,1.3915,1.3931,1.3955,1.399,1.4012,1.4044,1.4107,1.4113,1.4135,1.4142,1.4148,1.4155,1.419,1.42,1.409,1.409,1.409,0,0,1.376,1.3779,1.38,1.3845,1.3863,1.3899,1.387,1.3909,1.3937,1.3921,1.3972,1.3984,1.4012,1.407,1.4096,1.4082,1.4187,1.4154,1.4159,1.4162,1.4196,1.4207,1.4216,1.4093,1.4093,1.4092,0,0,1.3827,1.3844,1.3888,1.3907,1.3934,1.3941,1.3952,1.3977,1.3985,1.4036,1.4026,1.4058,1.4116,1.4137,1.4155,1.423,1.4221,1.424,1.4279,1.4313,1.4322,1.433,1.4358,1.4368,1.4246,1.4246,1.4246,0,1.3857,1.3911,1.3911,1.3952,1.3972,1.396,1.4005,1.4023,1.406,1.4075,1.4058,1.4132,1.4149,1.4213,1.4231,1.4245,1.4258,1.4238,1.4321,1.4328,1.4336,1.4363,1.4373,1.4249,1.4248,1.4248,1.4248,0,1.3946,1.3984,1.4016,1.4052,1.4076,1.4119,1.4126,1.415,1.4148,1.4157,1.4209,1.423,1.4267,1.4281,1.4279,1.4345,1.4335,1.432,1.4291,1.4348,1.4374,1.4384,1.4252,1.4251,1.4251,1.425,0,0,1.4032,1.4068,1.408,1.4097,1.4127,1.4156,1.4199,1.4235,1.4256,1.4282,1.4318,1.4368,1.4354,1.4374,1.4374,1.4405,1.4465,1.4385,1.4386,1.4401,1.454,1.4553,1.4565,1.4458,1.446,1.4462,1.4538,0,1.4102,1.4177,1.4179,1.4247,1.4283,1.4272,1.4309,1.4331,1.4341,1.4373,1.4383,1.4419,1.4397,1.441,1.4439,1.4451,1.4493,1.4446,1.4494,1.4495,1.4489,1.4578,1.4592,1.4663,1.4548,1.455,1.4551,0,1.4195,1.4224,1.4296,1.4322,1.4337,1.437,1.4404,1.4434,1.446,1.4465,1.4488,1.4484,1.4528,1.4496,1.4558,1.4526,1.4545,1.4554,1.4557,1.4563,1.4528,1.4588,1.4685,1.4697,1.4567,1.4565,1.4564,0,1.4252,1.4309,1.436,1.4375,1.4406,1.4429,1.4444,1.4467,1.4489,1.4519,1.4533,1.4568,1.4587,1.4614,1.4619,1.4595,1.4681,1.465,1.4688,1.4688,1.4708,1.4707,1.4811,1.4717,1.4717,1.4717,1.4717,0,1.4331,1.4376,1.4386,1.4418,1.4468,1.447,1.452,1.4532,1.4554,1.4588,1.458,1.4612,1.4617,1.4651,1.4655,1.4706,1.4714,1.472,1.4721,1.4722,1.4722,1.4736,1.4732,1.472,1.4719,1.4719,1.4718,0,1.4404,1.4412,1.4468,1.4493,1.45,1.4536,1.4558,1.4588,1.4597,1.464,1.4651,1.4664,1.4704,1.4712,1.4758,1.4761,1.4822,1.4817,1.4814,1.4814,1.4852,1.4849,1.4971,1.4988,1.4882,1.4883,1.4883,0,1.4455,1.4489,1.4518,1.4541,1.4556,1.4592,1.4615,1.4618,1.4642,1.4675,1.4702,1.474,1.4771,1.4835,1.4849,1.4885,1.4882,1.4922,1.4887,1.4887,1.4885,1.4883,1.4888,1.4929,1.493,1.4931,1.4932,0,1.4545,1.4548,1.4581,1.4615,1.4643,1.467,1.4696,1.4715,1.4722,1.4749,1.479,1.4814,1.4862,1.49,1.4936,1.4951,1.4944,1.4943,1.4954,1.4956,1.4953,1.4957,1.4834,1.494,1.494,1.4939,1.4939,1.4938,1.461,1.464,1.4666,1.4703,1.4723,1.4748,1.4779,1.4791,1.4825,1.4864,1.4864,1.4908,1.4934,1.4982,1.4999,1.5034,1.5022,1.5037,1.5041,1.5045,1.505,1.4946,1.504,1.504,1.504,1.504,1.504,0,1.4701,1.4717,1.4751,1.4788,1.4818,1.4807,1.4836,1.4862,1.4901,1.4926,1.4957,1.5004,1.5041,1.5059,1.5096,1.5121,1.5119,1.5131,1.513,1.5134,1.5058,1.5046,1.5133,1.5133,1.5133,1.5133,1.5133,1.5133,1.4752,1.4804,1.481,1.4872,1.4888,1.4931,1.4949,1.4972,1.4992,1.5045,1.5076,1.5087,1.511,1.5149,1.5183,1.5188,1.5203,1.5217,1.522,1.5149,1.5139,1.513,1.5119,1.522,1.522,1.5293,1.5294,1.5295]},{"header":{"parameterUnit":"m.s-1","parameterCategory":1,"la1":30.2991,"la2":30.254,"lo1":-89.0895,"lo2":-89.0444,"dy":0.0017,"dx":0.0017,"nx":28,"ny":28,"refTime":"2024-12-08T03:00:00:Z","depth":0,"parameterNumber":3,"parameterNumberName":"V-component_of_WINDS"},"data":[0,0,0,0,0,0,0,0,0,0,0,0,0,0,0,0,0,0,0,0,0,0,0,0,0,0,0,0,0,0,0,0,0,0,0,0,0,0,0,0,0,0,0,0,0,0,0,0,0,0,0,0,0,0,0,0,0,0,4.9027,4.9027,0,4.9089,4.9089,4.909,4.905,4.9048,4.9046,4.9045,4.9106,4.9109,4.9113,0,0,0,0,0,0,0,0,0,0,0,0,0,4.8872,4.8876,4.9027,4.9027,4.9028,4.9089,4.9089,4.909,4.905,4.9048,4.9046,4.9044,4.9105,4.9109,4.9113,0,0,0,0,0,0,0,0,0,0,0,0,0,4.8937,4.8877,4.9027,4.9016,4.9015,4.9088,4.9089,4.909,4.9051,4.9048,4.9045,4.9043,4.9104,4.9108,4.9113,4.92,0,0,4.9129,4.9131,0,0,0,0,0,0,0,0,4.8934,4.8943,4.9017,4.9017,4.9016,4.9059,4.9057,4.9127,4.9052,4.9037,4.9045,4.9041,4.9092,4.9098,4.9116,4.9203,4.9205,4.9129,4.9132,4.9134,4.9136,0,0,0,0,0,0,0,4.8929,4.894,4.9051,4.9018,4.9018,4.9007,4.9013,4.907,4.908,4.9038,4.9036,4.9044,4.9092,4.9111,4.9117,4.9206,4.9129,4.9134,4.9137,4.9139,4.9369,4.9372,0,0,0,0,0,0,4.8926,4.8937,4.9049,4.9053,4.8967,4.9012,4.9019,4.9048,4.9079,4.9081,4.9046,4.9042,4.9104,4.9111,4.9119,4.9225,4.9134,4.9139,4.9142,4.9366,4.937,4.9374,0,0,0,0,0,0,4.8923,4.8936,4.9047,4.8994,4.9007,4.9018,4.9051,4.9051,4.907,4.9085,4.9086,4.9064,4.9102,4.9112,4.9181,4.9226,4.9141,4.9146,4.9363,4.9368,4.9372,4.9435,0,0,0,0,0,0,4.8919,4.8936,4.8969,4.8995,4.901,4.9108,4.9053,4.9054,4.9079,4.9074,4.9102,4.9104,4.9101,4.9174,4.9186,4.9231,4.915,4.9359,4.9365,4.937,4.9429,4.9441,4.9452,0,0,0,0,0,4.8913,4.8983,4.8971,4.8984,4.9052,4.9111,4.9119,4.9115,4.9083,4.9117,4.9126,4.9103,4.9218,4.9181,4.9194,4.9242,4.9356,4.9363,4.937,4.9424,4.9439,4.9452,0,0,0,0,0,0,4.8961,4.8986,4.8973,4.9053,4.9081,4.9104,4.9146,4.913,4.9166,4.916,4.9151,4.9158,4.9231,4.9243,4.92,4.9328,4.9282,4.9292,4.9319,4.9333,4.9344,4.9341,4.9154,0,0,0,0,0,4.8981,4.9026,4.9046,4.9115,4.913,4.9136,4.9161,4.9155,4.9182,4.9193,4.9208,4.9234,4.9277,4.9305,4.9345,4.943,4.9436,4.9469,4.9481,4.949,4.9499,4.9548,4.9563,4.9397,4.9396,4.9396,0,0,4.9022,4.9042,4.9071,4.9125,4.9146,4.9194,4.9146,4.9197,4.9233,4.9201,4.9268,4.9279,4.9308,4.9387,4.9422,4.9399,4.9547,4.9499,4.9506,4.9511,4.9557,4.9572,4.9586,4.9401,4.94,4.94,0,0,4.9123,4.9142,4.9203,4.9224,4.9256,4.926,4.9274,4.9301,4.9308,4.9375,4.9352,4.9393,4.9466,4.9489,4.951,4.962,4.9602,4.9633,4.9694,4.9741,4.9754,4.9766,4.9808,4.9823,4.9642,4.9642,4.9642,0,4.9171,4.9243,4.9236,4.9291,4.9316,4.929,4.9352,4.9372,4.9415,4.9433,4.9407,4.9499,4.9516,4.9601,4.9628,4.9645,4.9662,4.9631,4.9753,4.9764,4.9775,4.9815,4.9831,4.9646,4.9646,4.9645,4.9645,0,4.9301,4.9351,4.9396,4.944,4.947,4.9528,4.953,4.9561,4.9552,4.9559,4.9629,4.9649,4.9693,4.9712,4.9703,4.9796,4.9781,4.9754,4.9708,4.9795,4.9833,4.9848,4.9652,4.965,4.9649,4.9648,0,0,4.9434,4.9475,4.9492,4.9512,4.9545,4.9584,4.9641,4.9685,4.9713,4.9743,4.9792,4.9854,4.983,4.9854,4.9847,4.9888,4.9978,4.9856,4.9857,4.9881,5.0084,5.0106,5.0124,4.9964,4.9967,4.9969,5.0082,0,4.954,4.9641,4.9637,4.9731,4.9779,4.9754,4.9804,4.983,4.9837,4.9878,4.9886,4.9932,4.9895,4.9909,4.9949,4.9959,5.0019,4.995,5.0011,5.0013,5.0008,5.0143,5.0167,5.0272,5.0096,5.0099,5.0101,0,4.9676,4.9713,4.9813,4.9841,4.9861,4.9906,4.9947,4.9986,5.0015,5.0018,5.0045,5.0032,5.009,5.0041,5.0121,5.0075,5.0099,5.0107,5.0111,5.0119,5.0064,5.0157,5.0305,5.0323,5.0123,5.0121,5.012,0,4.9768,4.9841,4.9911,4.9929,4.9963,4.9996,5.0011,5.0037,5.0065,5.01,5.0118,5.016,5.0183,5.0215,5.0214,5.0178,5.0297,5.0246,5.0302,5.0302,5.033,5.0329,5.0487,5.0341,5.0341,5.034,5.034,0,4.9887,4.995,4.9953,4.9997,5.0067,5.0061,5.013,5.0141,5.0165,5.021,5.019,5.0233,5.0227,5.027,5.0269,5.0338,5.0347,5.0352,5.0352,5.0356,5.0356,5.0374,5.0367,5.0344,5.0344,5.0343,5.0342,0,5.0002,5.0007,5.0082,5.0108,5.0116,5.0167,5.0189,5.023,5.0236,5.0293,5.0307,5.0316,5.0365,5.0367,5.0423,5.0422,5.0507,5.0496,5.0498,5.0497,5.0554,5.055,5.0732,5.0756,5.0591,5.0592,5.0594,0,5.008,5.0128,5.016,5.0189,5.0207,5.0254,5.0283,5.0279,5.031,5.0347,5.0384,5.0432,5.0471,5.0551,5.0563,5.0606,5.0598,5.0659,5.0605,5.0608,5.0603,5.0602,5.0608,5.0671,5.0673,5.0674,5.0675,0,5.0218,5.0218,5.0261,5.0305,5.034,5.0374,5.0406,5.0431,5.043,5.0466,5.0517,5.0547,5.0606,5.0655,5.0697,5.0712,5.0695,5.0692,5.0708,5.0714,5.0714,5.0718,5.053,5.0688,5.0687,5.0686,5.0685,5.0685,5.0319,5.0361,5.0391,5.044,5.0463,5.0494,5.0535,5.0546,5.0589,5.0638,5.0632,5.069,5.0718,5.0774,5.0792,5.0838,5.0817,5.0839,5.0845,5.0851,5.0859,5.0705,5.0845,5.0844,5.0844,5.0844,5.0843,0,5.0458,5.0477,5.0521,5.0568,5.0606,5.0586,5.062,5.0654,5.0706,5.0734,5.0773,5.0833,5.088,5.0895,5.0941,5.0974,5.0968,5.0987,5.0986,5.099,5.0873,5.0857,5.0992,5.0992,5.0992,5.0992,5.0992,5.0992,5.0536,5.0608,5.0612,5.0696,5.0713,5.0771,5.0793,5.0821,5.0844,5.0912,5.0952,5.0962,5.0985,5.1033,5.1076,5.1079,5.1098,5.1121,5.1122,5.1013,5.0998,5.0984,5.0969,5.1125,5.1125,5.1235,5.1236,5.1237]}]]